Location: R�o Tuerlos
(40.6704°N, 4.4622°W)
Time: 21:16:45
(UTC+00:00)

Cosmos 2298 Rocket - Pass Details

Date: 07 June 2020
Orbit: 776 x 784 km, 74.0° (Epoch: 09 July)

Event Time Altitude Azimuth Distance (km) Brightness Sun altitude
Rises 01:51:26 0° 338° (NNW) 3,268 7.9 -22.8°
Reaches altitude 10° 01:53:50 10° 336° (NNW) 2,337 7.0 -22.7°
Maximum altitude 01:59:06 69° 254° (WSW) 832 3.9 -22.2°
Enters shadow 02:00:17 52° 193° (SSW) 967 4.1 -22.1°
